START_TIME,STEP,MOV.,M34,t_acc.,L5,t_acc.,L18,t_acc.,L14,t_acc.
1979-03-02 07:23:02.170 ,0,0,0.,12.0,1.,12.0,0.,12.0,0.,12.0
1979-03-02 07:23:14.170 ,0,0,0.,12.0,2.,12.0,0.,12.0,0.,12.0
1979-03-02 07:23:26.170 ,7,1,1.,12.0,0.,12.0,0.,12.0,0.,12.0
1979-03-02 07:23:38.170 ,7,1,0.,12.0,3.,12.0,0.,12.0,0.,12.0
1979-03-02 07:23:50.170 ,7,1,0.,12.0,13.,12.0,0.,12.0,0.,12.0
1979-03-02 07:24:02.170 ,7,1,0.,12.0,14.,12.0,0.,12.0,1.,12.0
1979-03-02 07:24:14.170 ,6,1,0.,12.0,7.,12.0,0.,12.0,0.,12.0
1979-03-02 07:24:26.170 ,6,1,2.,12.0,5.,12.0,0.,12.0,0.,12.0
1979-03-02 07:24:38.170 ,5,1,2.,12.0,4.,12.0,0.,12.0,0.,12.0
1979-03-02 07:24:50.170 ,5,1,1.,12.0,1.,12.0,0.,12.0,0.,12.0
1979-03-02 07:25:02.170 ,4,1,2.,12.0,1.,12.0,0.,12.0,0.,12.0
1979-03-02 07:25:14.170 ,4,1,1.,12.0,4.,12.0,0.,12.0,0.,12.0
1979-03-02 07:25:26.170 ,3,1,3.,12.0,0.,12.0,0.,12.0,0.,12.0
1979-03-02 07:25:38.170 ,3,1,2.,12.0,5.,12.0,0.,12.0,0.,12.0
1979-03-02 07:25:50.170 ,2,1,2.,12.0,6.,12.0,0.,12.0,0.,12.0
1979-03-02 07:26:02.170 ,2,1,3.,12.0,2.,12.0,0.,12.0,0.,12.0
1979-03-02 07:26:14.170 ,1,1,2.,12.0,6.,12.0,0.,12.0,0.,12.0
1979-03-02 07:26:26.170 ,1,1,0.,12.0,1.,12.0,0.,12.0,0.,12.0
1979-03-02 07:26:38.170 ,0,1,1.,12.0,1.,12.0,0.,12.0,0.,12.0
1979-03-02 07:26:50.170 ,0,1,2.,12.0,2.,12.0,0.,12.0,0.,12.0
1979-03-02 07:27:02.170 ,0,1,2.,12.0,2.,12.0,0.,12.0,0.,12.0
1979-03-02 07:27:14.170 ,0,1,2.,12.0,1.,12.0,0.,12.0,0.,12.0
1979-03-02 07:27:26.170 ,1,1,1.,12.0,2.,12.0,0.,12.0,0.,12.0
1979-03-02 07:27:38.170 ,1,1,1.,12.0,0.,12.0,0.,12.0,0.,12.0
1979-03-02 07:27:50.170 ,2,1,4.,12.0,4.,12.0,0.,12.0,0.,12.0
1979-03-02 07:28:02.170 ,2,1,4.,12.0,1.,12.0,0.,12.0,0.,12.0
1979-03-02 07:28:14.170 ,3,1,1.,12.0,3.,12.0,0.,12.0,0.,12.0
1979-03-02 07:28:26.170 ,3,1,1.,12.0,0.,12.0,0.,12.0,0.,12.0
1979-03-02 07:28:38.170 ,4,1,0.,12.0,0.,12.0,0.,12.0,0.,12.0
1979-03-02 07:28:50.170 ,4,1,1.,12.0,0.,12.0,0.,12.0,0.,12.0
1979-03-02 07:29:02.170 ,5,1,2.,12.0,0.,12.0,0.,12.0,0.,12.0
1979-03-02 07:29:14.170 ,5,1,2.,12.0,3.,12.0,0.,12.0,1.,12.0
1979-03-02 07:29:26.170 ,6,1,2.,12.0,4.,12.0,0.,12.0,0.,12.0
1979-03-02 07:29:38.170 ,6,1,0.,12.0,4.,12.0,0.,12.0,0.,12.0
1979-03-02 07:29:50.170 ,7,1,2.,12.0,0.,12.0,0.,12.0,0.,12.0
1979-03-02 07:30:02.170 ,7,1,1.,12.0,7.,12.0,0.,12.0,0.,12.0
1979-03-02 07:30:14.170 ,7,1,0.,12.0,13.,12.0,0.,12.0,0.,12.0
1979-03-02 07:30:26.170 ,7,1,0.,12.0,12.,12.0,0.,12.0,0.,12.0
1979-03-02 07:30:38.170 ,6,1,0.,12.0,7.,12.0,0.,12.0,0.,12.0
1979-03-02 07:30:50.170 ,6,1,0.,12.0,5.,12.0,0.,12.0,0.,12.0
1979-03-02 07:31:02.170 ,5,1,4.,12.0,2.,12.0,0.,12.0,0.,12.0
1979-03-02 07:31:14.170 ,5,1,0.,12.0,3.,12.0,0.,12.0,0.,12.0
1979-03-02 07:31:26.170 ,4,1,1.,12.0,0.,12.0,0.,12.0,0.,12.0
1979-03-02 07:31:38.170 ,4,1,1.,12.0,1.,12.0,0.,12.0,0.,12.0
1979-03-02 07:31:50.170 ,3,1,1.,12.0,2.,12.0,0.,12.0,0.,12.0
1979-03-02 07:32:02.170 ,3,1,1.,12.0,4.,12.0,0.,12.0,0.,12.0
1979-03-02 07:32:14.170 ,2,1,0.,12.0,1.,12.0,0.,12.0,0.,12.0
1979-03-02 07:32:26.170 ,2,1,2.,12.0,4.,12.0,0.,12.0,0.,12.0
1979-03-02 07:32:38.170 ,1,1,3.,12.0,2.,12.0,0.,12.0,0.,12.0
1979-03-02 07:32:50.170 ,1,1,0.,12.0,4.,12.0,0.,12.0,0.,12.0
1979-03-02 07:33:02.170 ,0,1,1.,12.0,4.,12.0,0.,12.0,0.,12.0
1979-03-02 07:33:14.170 ,0,1,1.,12.0,3.,12.0,0.,12.0,0.,12.0
1979-03-02 07:33:26.170 ,0,1,3.,12.0,1.,12.0,0.,12.0,0.,12.0
1979-03-02 07:33:38.170 ,0,1,1.,12.0,0.,12.0,0.,12.0,0.,12.0
1979-03-02 07:33:50.170 ,1,1,1.,12.0,2.,12.0,0.,12.0,0.,12.0
1979-03-02 07:34:02.170 ,1,1,0.,12.0,2.,12.0,0.,12.0,0.,12.0
1979-03-02 07:34:14.170 ,2,1,2.,12.0,1.,12.0,0.,12.0,0.,12.0
1979-03-02 07:34:26.170 ,2,1,1.,12.0,3.,12.0,0.,12.0,0.,12.0
1979-03-02 07:34:38.170 ,3,1,2.,12.0,2.,12.0,0.,12.0,0.,12.0
1979-03-02 07:34:50.170 ,3,1,1.,12.0,5.,12.0,0.,12.0,0.,12.0
1979-03-02 07:35:02.170 ,4,1,1.,12.0,3.,12.0,0.,12.0,0.,12.0
1979-03-02 07:35:14.170 ,4,1,0.,12.0,1.,12.0,0.,12.0,0.,12.0
1979-03-02 07:35:26.170 ,5,1,2.,12.0,2.,12.0,0.,12.0,0.,12.0
1979-03-02 07:35:38.170 ,5,1,2.,12.0,5.,12.0,0.,12.0,0.,12.0
1979-03-02 07:35:50.170 ,6,1,0.,12.0,1.,12.0,0.,12.0,0.,12.0
1979-03-02 07:36:02.170 ,6,1,0.,12.0,3.,12.0,0.,12.0,0.,12.0
1979-03-02 07:36:14.170 ,7,1,0.,12.0,2.,12.0,0.,12.0,0.,12.0
1979-03-02 07:36:26.170 ,7,1,0.,12.0,8.,12.0,0.,12.0,0.,12.0
1979-03-02 07:36:38.170 ,7,1,0.,12.0,14.,12.0,0.,12.0,0.,12.0
1979-03-02 07:36:50.170 ,7,1,0.,12.0,12.,12.0,0.,12.0,0.,12.0
1979-03-02 07:37:02.170 ,6,1,0.,12.0,14.,12.0,0.,12.0,0.,12.0
1979-03-02 07:37:14.170 ,6,1,0.,12.0,3.,12.0,0.,12.0,0.,12.0
1979-03-02 07:37:26.170 ,5,1,0.,12.0,3.,12.0,0.,12.0,0.,12.0
1979-03-02 07:37:38.170 ,5,1,2.,12.0,2.,12.0,0.,12.0,0.,12.0
1979-03-02 07:37:50.170 ,4,1,2.,12.0,2.,12.0,0.,12.0,0.,12.0
1979-03-02 07:38:02.170 ,4,1,1.,12.0,2.,12.0,0.,12.0,0.,12.0
1979-03-02 07:38:14.170 ,3,1,1.,12.0,3.,12.0,0.,12.0,0.,12.0
1979-03-02 07:38:26.170 ,3,1,0.,12.0,1.,12.0,0.,12.0,0.,12.0
1979-03-02 07:38:38.170 ,2,1,1.,12.0,0.,12.0,0.,12.0,0.,12.0
1979-03-02 07:38:50.170 ,2,1,0.,12.0,2.,12.0,0.,12.0,0.,12.0
1979-03-02 07:39:02.170 ,1,1,1.,12.0,1.,12.0,0.,12.0,0.,12.0
1979-03-02 07:39:14.170 ,1,1,2.,12.0,2.,12.0,0.,12.0,0.,12.0
1979-03-02 07:39:26.170 ,0,1,1.,12.0,0.,12.0,0.,12.0,0.,12.0
1979-03-02 07:39:38.170 ,0,1,0.,12.0,3.,12.0,0.,12.0,0.,12.0
1979-03-02 07:39:50.170 ,0,1,2.,12.0,2.,12.0,0.,12.0,0.,12.0
1979-03-02 07:40:02.170 ,0,1,2.,12.0,0.,12.0,0.,12.0,0.,12.0
1979-03-02 07:40:14.170 ,1,1,0.,12.0,1.,12.0,0.,12.0,0.,12.0
1979-03-02 07:40:26.170 ,1,1,0.,12.0,1.,12.0,0.,12.0,0.,12.0
1979-03-02 07:40:38.170 ,2,1,2.,12.0,1.,12.0,0.,12.0,0.,12.0
1979-03-02 07:40:50.170 ,2,1,0.,12.0,1.,12.0,0.,12.0,0.,12.0
1979-03-02 07:41:02.170 ,3,1,1.,12.0,2.,12.0,0.,12.0,0.,12.0
1979-03-02 07:41:14.170 ,3,1,1.,12.0,0.,12.0,0.,12.0,0.,12.0
1979-03-02 07:41:26.170 ,4,1,0.,12.0,3.,12.0,0.,12.0,0.,12.0
1979-03-02 07:41:38.170 ,4,1,0.,12.0,1.,12.0,0.,12.0,0.,12.0
1979-03-02 07:41:50.170 ,5,1,0.,12.0,3.,12.0,0.,12.0,0.,12.0
1979-03-02 07:42:02.170 ,5,1,1.,12.0,2.,12.0,0.,12.0,0.,12.0
1979-03-02 07:42:14.170 ,6,1,2.,12.0,3.,12.0,0.,12.0,0.,12.0
1979-03-02 07:42:26.170 ,6,1,0.,12.0,4.,12.0,0.,12.0,0.,12.0
1979-03-02 07:42:38.170 ,7,1,1.,12.0,0.,12.0,0.,12.0,0.,12.0
1979-03-02 07:42:50.170 ,7,1,0.,12.0,10.,12.0,0.,12.0,0.,12.0
1979-03-02 07:43:02.170 ,7,1,0.,12.0,14.,12.0,0.,12.0,0.,12.0
1979-03-02 07:43:14.170 ,7,1,0.,12.0,15.,12.0,0.,12.0,0.,12.0
1979-03-02 07:43:26.170 ,6,1,0.,12.0,14.,12.0,0.,12.0,0.,12.0
1979-03-02 07:43:38.170 ,6,1,1.,12.0,5.,12.0,0.,12.0,0.,12.0
1979-03-02 07:43:50.170 ,5,1,1.,12.0,4.,12.0,0.,12.0,0.,12.0
1979-03-02 07:44:02.170 ,5,1,0.,12.0,3.,12.0,0.,12.0,0.,12.0
1979-03-02 07:44:14.170 ,4,1,0.,12.0,2.,12.0,0.,12.0,0.,12.0
1979-03-02 07:44:26.170 ,4,1,0.,12.0,0.,12.0,0.,12.0,0.,12.0
1979-03-02 07:44:38.170 ,3,1,0.,12.0,2.,12.0,0.,12.0,0.,12.0
1979-03-02 07:44:50.170 ,3,1,0.,12.0,4.,12.0,0.,12.0,0.,12.0
1979-03-02 07:45:02.170 ,2,1,0.,12.0,3.,12.0,0.,12.0,0.,12.0
1979-03-02 07:45:14.170 ,2,1,0.,12.0,2.,12.0,0.,12.0,0.,12.0
1979-03-02 07:45:26.170 ,1,1,0.,12.0,1.,12.0,0.,12.0,0.,12.0
1979-03-02 07:45:38.170 ,1,1,0.,12.0,0.,12.0,0.,12.0,0.,12.0
1979-03-02 07:45:50.170 ,0,1,1.,12.0,1.,12.0,0.,12.0,0.,12.0
1979-03-02 07:46:02.170 ,0,1,0.,12.0,0.,12.0,0.,12.0,0.,12.0
1979-03-02 07:46:14.170 ,0,1,0.,12.0,1.,12.0,0.,12.0,0.,12.0
1979-03-02 07:46:26.170 ,0,1,0.,12.0,1.,12.0,0.,12.0,0.,12.0
1979-03-02 07:46:38.170 ,1,1,0.,12.0,3.,12.0,0.,12.0,0.,12.0
1979-03-02 07:46:50.170 ,1,1,0.,12.0,1.,12.0,0.,12.0,0.,12.0
1979-03-02 07:47:02.170 ,2,1,0.,12.0,1.,12.0,0.,12.0,0.,12.0
1979-03-02 07:47:14.170 ,2,1,0.,12.0,1.,12.0,0.,12.0,0.,12.0
1979-03-02 07:47:26.170 ,3,1,0.,12.0,2.,12.0,0.,12.0,0.,12.0
1979-03-02 07:47:38.170 ,3,1,0.,12.0,1.,12.0,0.,12.0,0.,12.0
1979-03-02 07:47:50.170 ,4,1,0.,12.0,1.,12.0,0.,12.0,0.,12.0
1979-03-02 07:48:02.170 ,4,1,0.,12.0,1.,12.0,0.,12.0,0.,12.0
1979-03-02 07:48:14.170 ,5,1,0.,12.0,0.,12.0,0.,12.0,0.,12.0
1979-03-02 07:48:26.170 ,5,1,0.,12.0,1.,12.0,0.,12.0,0.,12.0
1979-03-02 07:48:38.170 ,6,1,1.,12.0,0.,12.0,0.,12.0,0.,12.0
1979-03-02 07:48:50.170 ,6,1,0.,12.0,3.,12.0,0.,12.0,0.,12.0
1979-03-02 07:49:02.170 ,7,1,1.,12.0,1.,12.0,0.,12.0,0.,12.0
1979-03-02 07:49:14.170 ,7,1,0.,12.0,13.,12.0,0.,12.0,0.,12.0
1979-03-02 07:49:26.170 ,7,1,0.,12.0,24.,12.0,0.,12.0,0.,12.0
1979-03-02 07:49:38.170 ,7,1,0.,12.0,20.,12.0,0.,12.0,0.,12.0
1979-03-02 07:49:50.170 ,6,1,0.,12.0,14.,12.0,0.,12.0,0.,12.0
1979-03-02 07:50:02.170 ,6,1,0.,12.0,8.,12.0,0.,12.0,0.,12.0
1979-03-02 07:50:14.170 ,5,1,0.,12.0,4.,12.0,0.,12.0,0.,12.0
1979-03-02 07:50:26.170 ,5,1,0.,12.0,1.,12.0,0.,12.0,0.,12.0
1979-03-02 07:50:38.170 ,4,1,0.,12.0,0.,12.0,0.,12.0,0.,12.0
1979-03-02 07:50:50.170 ,4,1,0.,12.0,1.,12.0,0.,12.0,0.,12.0
1979-03-02 07:51:02.170 ,3,1,0.,12.0,1.,12.0,0.,12.0,0.,12.0
1979-03-02 07:51:14.170 ,3,1,1.,12.0,0.,12.0,0.,12.0,0.,12.0
1979-03-02 07:51:26.170 ,2,1,0.,12.0,1.,12.0,0.,12.0,0.,12.0
1979-03-02 07:51:38.170 ,2,1,0.,12.0,0.,12.0,0.,12.0,0.,12.0
1979-03-02 07:51:50.170 ,1,1,0.,12.0,3.,12.0,0.,12.0,0.,12.0
1979-03-02 07:52:02.170 ,1,1,0.,12.0,2.,12.0,0.,12.0,0.,12.0
1979-03-02 07:52:14.170 ,0,1,0.,12.0,1.,12.0,0.,12.0,0.,12.0
1979-03-02 07:52:26.170 ,0,1,0.,12.0,3.,12.0,0.,12.0,0.,12.0
1979-03-02 07:52:38.170 ,0,1,0.,12.0,2.,12.0,0.,12.0,0.,12.0
1979-03-02 07:52:50.170 ,0,1,0.,12.0,1.,12.0,0.,12.0,0.,12.0
1979-03-02 07:53:02.170 ,1,1,0.,12.0,0.,12.0,0.,12.0,0.,12.0
1979-03-02 07:53:14.170 ,1,1,0.,12.0,0.,12.0,0.,12.0,0.,12.0
1979-03-02 07:53:26.170 ,2,1,0.,12.0,2.,12.0,0.,12.0,0.,12.0
1979-03-02 07:53:38.170 ,2,1,0.,12.0,2.,12.0,0.,12.0,0.,12.0
1979-03-02 07:53:50.170 ,3,1,0.,12.0,2.,12.0,0.,12.0,0.,12.0
1979-03-02 07:54:02.170 ,3,1,0.,12.0,2.,12.0,0.,12.0,0.,12.0
1979-03-02 07:54:14.170 ,4,1,0.,12.0,2.,12.0,0.,12.0,0.,12.0
1979-03-02 07:54:26.170 ,4,1,1.,12.0,1.,12.0,0.,12.0,0.,12.0
1979-03-02 07:54:38.170 ,5,1,0.,12.0,0.,12.0,0.,12.0,0.,12.0
1979-03-02 07:54:50.170 ,5,1,0.,12.0,1.,12.0,0.,12.0,0.,12.0
1979-03-02 07:55:02.170 ,6,1,0.,12.0,2.,12.0,0.,12.0,0.,12.0
1979-03-02 07:55:14.170 ,6,1,0.,12.0,1.,12.0,0.,12.0,0.,12.0
1979-03-02 07:55:26.170 ,7,1,0.,12.0,1.,12.0,0.,12.0,0.,12.0
1979-03-02 07:55:38.170 ,7,1,0.,12.0,7.,12.0,0.,12.0,0.,12.0
1979-03-02 07:55:50.170 ,7,1,0.,12.0,15.,12.0,0.,12.0,0.,12.0
1979-03-02 07:56:02.170 ,7,1,0.,12.0,16.,12.0,0.,12.0,0.,12.0
1979-03-02 07:56:14.170 ,6,1,0.,12.0,17.,12.0,0.,12.0,0.,12.0
1979-03-02 07:56:26.170 ,6,1,0.,12.0,7.,12.0,0.,12.0,0.,12.0
1979-03-02 07:56:38.170 ,5,1,0.,12.0,0.,12.0,0.,12.0,0.,12.0
1979-03-02 07:56:50.170 ,5,1,0.,12.0,2.,12.0,0.,12.0,0.,12.0
1979-03-02 07:57:02.170 ,4,1,0.,12.0,0.,12.0,0.,12.0,0.,12.0
1979-03-02 07:57:14.170 ,4,1,0.,12.0,3.,12.0,0.,12.0,0.,12.0
1979-03-02 07:57:26.170 ,3,1,0.,12.0,3.,12.0,0.,12.0,0.,12.0
1979-03-02 07:57:38.170 ,3,1,0.,12.0,1.,12.0,0.,12.0,0.,12.0
1979-03-02 07:57:50.170 ,2,1,0.,12.0,2.,12.0,0.,12.0,0.,12.0
1979-03-02 07:58:02.170 ,2,1,0.,12.0,3.,12.0,0.,12.0,0.,12.0
1979-03-02 07:58:14.170 ,1,1,0.,12.0,6.,12.0,0.,12.0,0.,12.0
1979-03-02 07:58:26.170 ,1,1,0.,12.0,6.,12.0,0.,12.0,0.,12.0
1979-03-02 07:58:38.170 ,0,1,0.,12.0,5.,12.0,0.,12.0,0.,12.0
1979-03-02 07:58:50.170 ,0,1,0.,12.0,0.,12.0,0.,12.0,0.,12.0
1979-03-02 07:59:02.170 ,0,1,0.,12.0,3.,12.0,0.,12.0,0.,12.0
1979-03-02 07:59:14.170 ,0,1,0.,12.0,5.,12.0,0.,12.0,0.,12.0
1979-03-02 07:59:26.170 ,1,1,0.,12.0,1.,12.0,0.,12.0,0.,12.0
1979-03-02 07:59:38.170 ,1,1,0.,12.0,0.,12.0,0.,12.0,0.,12.0
1979-03-02 07:59:50.170 ,2,1,0.,12.0,0.,12.0,0.,12.0,0.,12.0
1979-03-02 08:00:02.170 ,2,1,0.,12.0,4.,12.0,0.,12.0,0.,12.0
1979-03-02 08:00:14.170 ,3,1,0.,12.0,3.,12.0,0.,12.0,0.,12.0
1979-03-02 08:00:26.170 ,3,1,0.,12.0,2.,12.0,0.,12.0,0.,12.0
1979-03-02 08:00:38.170 ,4,1,0.,12.0,2.,12.0,0.,12.0,0.,12.0
1979-03-02 08:00:50.170 ,4,1,0.,12.0,0.,12.0,0.,12.0,0.,12.0
1979-03-02 08:01:02.170 ,5,1,0.,12.0,3.,12.0,0.,12.0,0.,12.0
1979-03-02 08:01:14.170 ,5,1,0.,12.0,1.,12.0,0.,12.0,0.,12.0
1979-03-02 08:01:26.170 ,6,1,0.,12.0,2.,12.0,0.,12.0,0.,12.0
1979-03-02 08:01:38.170 ,6,1,0.,12.0,1.,12.0,0.,12.0,0.,12.0
1979-03-02 08:01:50.170 ,7,1,0.,12.0,0.,12.0,0.,12.0,0.,12.0
1979-03-02 08:02:02.170 ,7,1,0.,12.0,9.,12.0,0.,12.0,0.,12.0
1979-03-02 08:02:14.170 ,7,1,0.,12.0,18.,12.0,0.,12.0,0.,12.0
1979-03-02 08:02:26.170 ,7,1,0.,12.0,12.,12.0,0.,12.0,0.,12.0
1979-03-02 08:02:38.170 ,6,1,0.,12.0,23.,12.0,0.,12.0,0.,12.0
1979-03-02 08:02:50.170 ,6,1,0.,12.0,5.,12.0,0.,12.0,0.,12.0
1979-03-02 08:03:02.170 ,5,1,0.,12.0,2.,12.0,0.,12.0,0.,12.0
1979-03-02 08:03:14.170 ,5,1,0.,12.0,3.,12.0,0.,12.0,0.,12.0
1979-03-02 08:03:26.170 ,4,1,0.,12.0,0.,12.0,0.,12.0,0.,12.0
1979-03-02 08:03:38.170 ,4,1,0.,12.0,5.,12.0,0.,12.0,0.,12.0
1979-03-02 08:03:50.170 ,3,1,0.,12.0,4.,12.0,0.,12.0,0.,12.0
1979-03-02 08:04:02.170 ,3,1,0.,12.0,4.,12.0,0.,12.0,0.,12.0
1979-03-02 08:04:14.170 ,2,1,0.,12.0,1.,12.0,0.,12.0,0.,12.0
1979-03-02 08:04:26.170 ,2,1,0.,12.0,3.,12.0,0.,12.0,0.,12.0
1979-03-02 08:04:38.170 ,1,1,0.,12.0,4.,12.0,0.,12.0,0.,12.0
1979-03-02 08:04:50.170 ,1,1,0.,12.0,4.,12.0,0.,12.0,0.,12.0
1979-03-02 08:05:02.170 ,0,1,0.,12.0,1.,12.0,0.,12.0,0.,12.0
1979-03-02 08:05:14.170 ,0,1,0.,12.0,2.,12.0,0.,12.0,0.,12.0
1979-03-02 08:05:26.170 ,0,1,0.,12.0,3.,12.0,0.,12.0,0.,12.0
1979-03-02 08:05:38.170 ,0,1,0.,12.0,3.,12.0,0.,12.0,0.,12.0
1979-03-02 08:05:50.170 ,1,1,0.,12.0,6.,12.0,0.,12.0,0.,12.0
1979-03-02 08:06:02.170 ,1,1,0.,12.0,3.,12.0,0.,12.0,0.,12.0
1979-03-02 08:06:14.170 ,2,1,0.,12.0,4.,12.0,0.,12.0,0.,12.0
1979-03-02 08:06:26.170 ,2,1,0.,12.0,2.,12.0,0.,12.0,0.,12.0
1979-03-02 08:06:38.170 ,3,1,0.,12.0,3.,12.0,0.,12.0,0.,12.0
1979-03-02 08:06:50.170 ,3,1,0.,12.0,1.,12.0,0.,12.0,0.,12.0
1979-03-02 08:07:02.170 ,4,1,0.,12.0,2.,12.0,0.,12.0,0.,12.0
1979-03-02 08:07:14.170 ,4,1,0.,12.0,1.,12.0,0.,12.0,0.,12.0
1979-03-02 08:07:26.170 ,5,1,0.,12.0,2.,12.0,0.,12.0,0.,12.0
1979-03-02 08:07:38.170 ,5,1,0.,12.0,1.,12.0,0.,12.0,0.,12.0
1979-03-02 08:07:50.170 ,6,1,0.,12.0,0.,12.0,0.,12.0,0.,12.0
1979-03-02 08:08:02.170 ,6,1,1.,12.0,1.,12.0,0.,12.0,0.,12.0
1979-03-02 08:08:14.170 ,7,1,0.,12.0,2.,12.0,0.,12.0,0.,12.0
1979-03-02 08:08:26.170 ,7,1,0.,12.0,12.,12.0,0.,12.0,0.,12.0
1979-03-02 08:08:38.170 ,7,1,0.,12.0,12.,12.0,0.,12.0,0.,12.0
1979-03-02 08:08:50.170 ,7,1,0.,12.0,20.,12.0,0.,12.0,0.,12.0
1979-03-02 08:09:02.170 ,6,1,0.,12.0,24.,12.0,0.,12.0,0.,12.0
1979-03-02 08:09:14.170 ,6,1,0.,12.0,9.,12.0,0.,12.0,0.,12.0
1979-03-02 08:09:26.170 ,5,1,0.,12.0,3.,12.0,0.,12.0,0.,12.0
1979-03-02 08:09:38.170 ,5,1,0.,12.0,1.,12.0,0.,12.0,0.,12.0
1979-03-02 08:09:50.170 ,4,1,0.,12.0,1.,12.0,0.,12.0,0.,12.0
1979-03-02 08:10:02.170 ,4,1,0.,12.0,2.,12.0,0.,12.0,0.,12.0
1979-03-02 08:10:14.170 ,3,1,0.,12.0,6.,12.0,0.,12.0,0.,12.0
1979-03-02 08:10:26.170 ,3,1,0.,12.0,2.,12.0,0.,12.0,0.,12.0
1979-03-02 08:10:38.170 ,2,1,0.,12.0,2.,12.0,0.,12.0,0.,12.0
1979-03-02 08:10:50.170 ,2,1,0.,12.0,6.,12.0,0.,12.0,0.,12.0
1979-03-02 08:11:02.170 ,1,1,0.,12.0,4.,12.0,0.,12.0,0.,12.0
1979-03-02 08:11:14.170 ,1,1,0.,12.0,3.,12.0,0.,12.0,0.,12.0
1979-03-02 08:11:26.170 ,0,1,0.,12.0,3.,12.0,0.,12.0,0.,12.0
1979-03-02 08:11:38.170 ,0,1,0.,12.0,5.,12.0,0.,12.0,0.,12.0
1979-03-02 08:11:50.170 ,0,1,0.,12.0,2.,12.0,0.,12.0,0.,12.0
1979-03-02 08:12:02.170 ,0,1,0.,12.0,4.,12.0,0.,12.0,0.,12.0
1979-03-02 08:12:14.170 ,1,1,0.,12.0,4.,12.0,0.,12.0,0.,12.0
1979-03-02 08:12:26.170 ,1,1,0.,12.0,2.,12.0,0.,12.0,0.,12.0
1979-03-02 08:12:38.170 ,2,1,0.,12.0,2.,12.0,0.,12.0,0.,12.0
1979-03-02 08:12:50.170 ,2,1,0.,12.0,2.,12.0,0.,12.0,0.,12.0
1979-03-02 08:13:02.170 ,3,1,0.,12.0,5.,12.0,0.,12.0,0.,12.0
1979-03-02 08:13:14.170 ,3,1,0.,12.0,4.,12.0,0.,12.0,0.,12.0
1979-03-02 08:13:26.170 ,4,1,0.,12.0,3.,12.0,0.,12.0,0.,12.0
1979-03-02 08:13:38.170 ,4,1,0.,12.0,4.,12.0,0.,12.0,0.,12.0
1979-03-02 08:13:50.170 ,5,1,0.,12.0,4.,12.0,0.,12.0,0.,12.0
1979-03-02 08:14:02.170 ,5,1,0.,12.0,5.,12.0,0.,12.0,0.,12.0
1979-03-02 08:14:14.170 ,6,1,0.,12.0,4.,12.0,0.,12.0,0.,12.0
1979-03-02 08:14:26.170 ,6,1,0.,12.0,3.,12.0,0.,12.0,0.,12.0
1979-03-02 08:14:38.170 ,7,1,1.,12.0,2.,12.0,0.,12.0,0.,12.0
1979-03-02 08:14:50.170 ,7,1,0.,12.0,18.,12.0,0.,12.0,0.,12.0
1979-03-02 08:15:02.170 ,7,1,0.,12.0,16.,12.0,0.,12.0,0.,12.0
1979-03-02 08:15:14.170 ,7,1,0.,12.0,21.,12.0,0.,12.0,0.,12.0
1979-03-02 08:15:26.170 ,6,1,0.,12.0,20.,12.0,0.,12.0,0.,12.0
1979-03-02 08:15:38.170 ,6,1,0.,12.0,2.,12.0,0.,12.0,0.,12.0
1979-03-02 08:15:50.170 ,5,1,0.,12.0,3.,12.0,0.,12.0,0.,12.0
1979-03-02 08:16:02.170 ,5,1,0.,12.0,1.,12.0,0.,12.0,0.,12.0
1979-03-02 08:16:14.170 ,4,1,0.,12.0,0.,12.0,0.,12.0,0.,12.0
1979-03-02 08:16:26.170 ,4,1,0.,12.0,2.,12.0,0.,12.0,0.,12.0
1979-03-02 08:16:38.170 ,3,1,0.,12.0,2.,12.0,0.,12.0,0.,12.0
1979-03-02 08:16:50.170 ,3,1,0.,12.0,2.,12.0,0.,12.0,0.,12.0
1979-03-02 08:17:02.170 ,2,1,0.,12.0,3.,12.0,0.,12.0,0.,12.0
1979-03-02 08:17:14.170 ,2,1,0.,12.0,5.,12.0,0.,12.0,0.,12.0
1979-03-02 08:17:26.170 ,1,1,0.,12.0,2.,12.0,0.,12.0,0.,12.0
1979-03-02 08:17:38.170 ,1,1,0.,12.0,2.,12.0,0.,12.0,0.,12.0
1979-03-02 08:17:50.170 ,0,1,0.,12.0,4.,12.0,0.,12.0,0.,12.0
1979-03-02 08:18:02.170 ,0,1,0.,12.0,1.,12.0,0.,12.0,0.,12.0
1979-03-02 08:18:14.170 ,0,1,0.,12.0,3.,12.0,0.,12.0,0.,12.0
1979-03-02 08:18:26.170 ,0,1,0.,12.0,4.,12.0,0.,12.0,0.,12.0
1979-03-02 08:18:38.170 ,1,1,1.,12.0,5.,12.0,0.,12.0,0.,12.0
1979-03-02 08:18:50.170 ,1,1,1.,12.0,6.,12.0,0.,12.0,0.,12.0
1979-03-02 08:19:02.170 ,2,1,0.,12.0,2.,12.0,0.,12.0,0.,12.0
1979-03-02 08:19:14.170 ,2,1,0.,12.0,3.,12.0,0.,12.0,0.,12.0
1979-03-02 08:19:26.170 ,3,1,0.,12.0,2.,12.0,0.,12.0,0.,12.0
1979-03-02 08:19:38.170 ,3,1,0.,12.0,4.,12.0,0.,12.0,0.,12.0
1979-03-02 08:19:50.170 ,4,1,0.,12.0,0.,12.0,0.,12.0,0.,12.0
1979-03-02 08:20:02.170 ,4,1,0.,12.0,0.,12.0,0.,12.0,0.,12.0
1979-03-02 08:20:14.170 ,5,1,0.,12.0,3.,12.0,0.,12.0,0.,12.0
1979-03-02 08:20:26.170 ,5,1,0.,12.0,4.,12.0,0.,12.0,0.,12.0
1979-03-02 08:20:38.170 ,6,1,0.,12.0,2.,12.0,0.,12.0,0.,12.0
1979-03-02 08:20:50.170 ,6,1,1.,12.0,2.,12.0,0.,12.0,0.,12.0
1979-03-02 08:21:02.170 ,7,1,0.,12.0,5.,12.0,0.,12.0,0.,12.0
1979-03-02 08:21:14.170 ,7,1,0.,12.0,18.,12.0,0.,12.0,0.,12.0
1979-03-02 08:21:26.170 ,7,1,0.,12.0,19.,12.0,0.,12.0,0.,12.0
1979-03-02 08:21:38.170 ,7,1,0.,12.0,15.,12.0,0.,12.0,0.,12.0
1979-03-02 08:21:50.170 ,6,1,0.,12.0,15.,12.0,0.,12.0,0.,12.0
1979-03-02 08:22:02.170 ,6,1,0.,12.0,5.,12.0,0.,12.0,0.,12.0
1979-03-02 08:22:14.170 ,5,1,0.,12.0,4.,12.0,0.,12.0,0.,12.0
1979-03-02 08:22:26.170 ,5,1,0.,12.0,0.,12.0,0.,12.0,0.,12.0
1979-03-02 08:22:38.170 ,4,1,0.,12.0,2.,12.0,0.,12.0,0.,12.0
1979-03-02 08:22:50.170 ,4,1,0.,12.0,2.,12.0,0.,12.0,0.,12.0
1979-03-02 08:23:02.170 ,3,1,0.,12.0,6.,12.0,0.,12.0,0.,12.0
1979-03-02 08:23:14.170 ,3,1,0.,12.0,3.,12.0,0.,12.0,0.,12.0
1979-03-02 08:23:26.170 ,2,1,0.,12.0,7.,12.0,0.,12.0,0.,12.0
1979-03-02 08:23:38.170 ,2,1,0.,12.0,5.,12.0,0.,12.0,0.,12.0
1979-03-02 08:23:50.170 ,1,1,0.,12.0,6.,12.0,0.,12.0,0.,12.0
1979-03-02 08:24:02.170 ,1,1,0.,12.0,4.,12.0,0.,12.0,0.,12.0
1979-03-02 08:24:14.170 ,0,1,0.,12.0,3.,12.0,0.,12.0,0.,12.0
1979-03-02 08:24:26.170 ,0,1,0.,12.0,3.,12.0,0.,12.0,0.,12.0
1979-03-02 08:24:38.170 ,0,1,0.,12.0,3.,12.0,0.,12.0,0.,12.0
1979-03-02 08:24:50.170 ,0,1,0.,12.0,2.,12.0,0.,12.0,0.,12.0
1979-03-02 08:25:02.170 ,1,1,0.,12.0,2.,12.0,0.,12.0,0.,12.0
1979-03-02 08:25:14.170 ,1,1,0.,12.0,4.,12.0,0.,12.0,0.,12.0
1979-03-02 08:25:26.170 ,2,1,0.,12.0,0.,12.0,0.,12.0,0.,12.0
1979-03-02 08:25:38.170 ,2,1,0.,12.0,2.,12.0,0.,12.0,0.,12.0
1979-03-02 08:25:50.170 ,3,1,0.,12.0,2.,12.0,0.,12.0,0.,12.0
1979-03-02 08:26:02.170 ,3,1,0.,12.0,2.,12.0,0.,12.0,0.,12.0
1979-03-02 08:26:14.170 ,4,1,0.,12.0,3.,12.0,0.,12.0,0.,12.0
1979-03-02 08:26:26.170 ,4,1,0.,12.0,2.,12.0,0.,12.0,0.,12.0
1979-03-02 08:26:38.170 ,5,1,0.,12.0,4.,12.0,0.,12.0,0.,12.0
1979-03-02 08:26:50.170 ,5,1,0.,12.0,2.,12.0,0.,12.0,0.,12.0
1979-03-02 08:27:02.170 ,6,1,0.,12.0,0.,12.0,0.,12.0,0.,12.0
1979-03-02 08:27:14.170 ,6,1,0.,12.0,1.,12.0,0.,12.0,0.,12.0
1979-03-02 08:27:26.170 ,7,1,0.,12.0,1.,12.0,0.,12.0,0.,12.0
1979-03-02 08:27:38.170 ,7,1,0.,12.0,13.,12.0,0.,12.0,0.,12.0
1979-03-02 08:27:50.170 ,7,1,0.,12.0,24.,12.0,0.,12.0,0.,12.0
1979-03-02 08:28:02.170 ,7,1,0.,12.0,14.,12.0,0.,12.0,0.,12.0
1979-03-02 08:28:14.170 ,6,1,0.,12.0,9.,12.0,0.,12.0,0.,12.0
1979-03-02 08:28:26.170 ,6,1,0.,12.0,9.,12.0,0.,12.0,0.,12.0
1979-03-02 08:28:38.170 ,5,1,0.,12.0,3.,12.0,0.,12.0,0.,12.0
1979-03-02 08:28:50.170 ,5,1,0.,12.0,2.,12.0,0.,12.0,0.,12.0
1979-03-02 08:29:02.170 ,4,1,0.,12.0,6.,12.0,0.,12.0,0.,12.0
1979-03-02 08:29:14.170 ,4,1,0.,12.0,0.,12.0,0.,12.0,0.,12.0
1979-03-02 08:29:26.170 ,3,1,0.,12.0,4.,12.0,0.,12.0,0.,12.0
1979-03-02 08:29:38.170 ,3,1,0.,12.0,1.,12.0,0.,12.0,0.,12.0
1979-03-02 08:29:50.170 ,2,1,0.,12.0,6.,12.0,0.,12.0,0.,12.0
1979-03-02 08:30:02.170 ,2,1,0.,12.0,2.,12.0,0.,12.0,0.,12.0
1979-03-02 08:30:14.170 ,1,1,0.,12.0,2.,12.0,0.,12.0,0.,12.0
1979-03-02 08:30:26.170 ,1,1,0.,12.0,1.,12.0,0.,12.0,0.,12.0
1979-03-02 08:30:38.170 ,0,1,0.,12.0,0.,12.0,0.,12.0,0.,12.0
1979-03-02 08:30:50.170 ,0,1,0.,12.0,2.,12.0,0.,12.0,0.,12.0
1979-03-02 08:31:02.170 ,0,1,0.,12.0,5.,12.0,0.,12.0,0.,12.0
1979-03-02 08:31:14.170 ,0,1,0.,12.0,3.,12.0,0.,12.0,0.,12.0
1979-03-02 08:31:26.170 ,1,1,0.,12.0,5.,12.0,0.,12.0,0.,12.0
1979-03-02 08:31:38.170 ,1,1,0.,12.0,4.,12.0,0.,12.0,0.,12.0
1979-03-02 08:31:50.170 ,2,1,0.,12.0,0.,12.0,0.,12.0,0.,12.0
1979-03-02 08:32:02.170 ,2,1,0.,12.0,0.,12.0,0.,12.0,0.,12.0
1979-03-02 08:32:14.170 ,3,1,0.,12.0,3.,12.0,0.,12.0,0.,12.0
1979-03-02 08:32:26.170 ,3,1,0.,12.0,2.,12.0,0.,12.0,0.,12.0
1979-03-02 08:32:38.170 ,4,1,0.,12.0,2.,12.0,0.,12.0,0.,12.0
1979-03-02 08:32:50.170 ,4,1,0.,12.0,2.,12.0,0.,12.0,0.,12.0
1979-03-02 08:33:02.170 ,5,1,0.,12.0,4.,12.0,0.,12.0,0.,12.0
1979-03-02 08:33:14.170 ,5,1,0.,12.0,4.,12.0,0.,12.0,0.,12.0
1979-03-02 08:33:26.170 ,6,1,0.,12.0,3.,12.0,0.,12.0,0.,12.0
1979-03-02 08:33:38.170 ,6,1,0.,12.0,3.,12.0,0.,12.0,0.,12.0
1979-03-02 08:33:50.170 ,7,1,0.,12.0,3.,12.0,0.,12.0,0.,12.0
1979-03-02 08:34:02.170 ,7,1,0.,12.0,15.,12.0,0.,12.0,0.,12.0
1979-03-02 08:34:14.170 ,7,1,0.,12.0,14.,12.0,0.,12.0,0.,12.0
1979-03-02 08:34:26.170 ,7,1,0.,12.0,14.,12.0,0.,12.0,0.,12.0
1979-03-02 08:34:38.170 ,6,1,0.,12.0,18.,12.0,0.,12.0,0.,12.0
1979-03-02 08:34:50.170 ,6,1,0.,12.0,7.,12.0,0.,12.0,0.,12.0
1979-03-02 08:35:02.170 ,5,1,0.,12.0,3.,12.0,0.,12.0,0.,12.0
1979-03-02 08:35:14.170 ,5,1,0.,12.0,2.,12.0,0.,12.0,0.,12.0
1979-03-02 08:35:26.170 ,4,1,0.,12.0,1.,12.0,0.,12.0,0.,12.0
1979-03-02 08:35:38.170 ,4,1,0.,12.0,0.,12.0,0.,12.0,0.,12.0
1979-03-02 08:35:50.170 ,3,1,1.,12.0,0.,12.0,0.,12.0,0.,12.0
1979-03-02 08:36:02.170 ,3,1,0.,12.0,1.,12.0,0.,12.0,0.,12.0
1979-03-02 08:36:14.170 ,2,1,0.,12.0,0.,12.0,0.,12.0,0.,12.0
1979-03-02 08:36:26.170 ,2,1,0.,12.0,0.,12.0,0.,12.0,0.,12.0
1979-03-02 08:36:38.170 ,1,1,0.,12.0,1.,12.0,0.,12.0,0.,12.0
1979-03-02 08:36:50.170 ,1,1,0.,12.0,3.,12.0,0.,12.0,0.,12.0
1979-03-02 08:37:02.170 ,0,1,0.,12.0,0.,12.0,0.,12.0,0.,12.0
1979-03-02 08:37:14.170 ,0,1,0.,12.0,4.,12.0,0.,12.0,0.,12.0
1979-03-02 08:37:26.170 ,0,1,0.,12.0,0.,12.0,0.,12.0,0.,12.0
1979-03-02 08:37:38.170 ,0,1,0.,12.0,2.,12.0,0.,12.0,0.,12.0
1979-03-02 08:37:50.170 ,1,1,0.,12.0,1.,12.0,0.,12.0,1.,12.0
1979-03-02 08:38:02.170 ,1,1,0.,12.0,5.,12.0,0.,12.0,0.,12.0
1979-03-02 08:38:14.170 ,2,1,0.,12.0,3.,12.0,0.,12.0,0.,12.0
1979-03-02 08:38:26.170 ,2,1,0.,12.0,0.,12.0,0.,12.0,0.,12.0
1979-03-02 08:38:38.170 ,3,1,0.,12.0,3.,12.0,0.,12.0,0.,12.0
1979-03-02 08:38:50.170 ,3,1,0.,12.0,3.,12.0,0.,12.0,0.,12.0
1979-03-02 08:39:02.170 ,4,1,0.,12.0,0.,12.0,0.,12.0,0.,12.0
1979-03-02 08:39:14.170 ,4,1,0.,12.0,1.,12.0,0.,12.0,0.,12.0
1979-03-02 08:39:26.170 ,5,1,0.,12.0,2.,12.0,0.,12.0,0.,12.0
1979-03-02 08:39:38.170 ,5,1,0.,12.0,2.,12.0,0.,12.0,0.,12.0
1979-03-02 08:39:50.170 ,6,1,0.,12.0,3.,12.0,0.,12.0,0.,12.0